星链-1233 (STARLINK-1233 )

导读 | 星芒AI

STARLINK-1233 是 SpaceX Starlink 项目中的一颗低轨通信卫星,属于第 12 批部署的星链卫星之一。该卫星运行在约 550 公里的高度,旨在为全球用户提供高速互联网服务。作为星链星座的一部分,STARLINK-1233 采用先进推进系统,具备自主变轨和避碰能力,有助于提升网络覆盖与连接稳定性。该卫星于 2021 年发射,是 SpaceX 推动全球宽带普及计划的重要组成部分。

基本信息
目录编号:
45214
目录名称:
STARLINK-1233
国际标识:
2020-012AN
轨道中心:
EARTH
卫星名称:
星链-1233
卫星全名:
星链-1233 (STARLINK-1233 )
卫星状态:
已陨落 最后检测时间 2024-09-07
发射日期:
2020-02-17 UTC
国别 :
美国 (US)
星等 :
--
轨道信息
数据来源 国际轨道数据
星历时间: 2024-09-08T04:35:37+0800
轨道信息已过期421天
半长轴: 6584.503km
偏心率: 0.0000964
轨道倾角: 53.042°
近地点辐角 42.313°
升交点赤经 250.774°
平近点角 47.891°
近地点: 205.733km
远地点: 207.003km
周期: 88.623分钟
每日圈数: 16.248688
详细信息
固有亮度:
5
最大亮度:
2.5
卫星平台:
Starlink V1.0
覆盖范围:
全球
运营商:
太空探索技术公司
运营商所在国:
美国
制造商(研发单位):
太空探索技术公司
制造商所在国:
美国
使用方式:
暂无
卫星简介
星链(Starlink)计划是由太空探索技术公司(SpaceX)提出的一个巨型低轨卫星互联网星座项目,计划在2019年至2024年间在太空搭建由约1.2万颗卫星组成的“星链”网络,其中1584颗将部署在地球上空550千米处的近地轨道,并从2020年开始工作。该卫星仍在工作。